| time (UTC) | temp F | wind direction | speed MPH | gust MPH | rain 1hr in | rain 24hr in | rain mn in | humidity % | barometer mb |
| 20260506071026 | 0 | 0.0 | 0.0 | 0.00 | 0.00 | 0.00 | 1017.3 | ||
| 20260506070523 | 0 | 0.0 | 0.0 | 0.00 | 0.00 | 0.00 | 1017.3 | ||
| 20260506062053 | 53 | 90 | 0.0 | 0.0 | 0.00 | 0.00 | 0.00 | 1 | 1017.3 |
| 20260506061547 | 53 | 90 | 0.0 | 0.0 | 0.00 | 0.00 | 0.00 | 1 | 1017.3 |
| 20260506061035 | 54 | 90 | 0.0 | 0.0 | 0.00 | 0.00 | 0.00 | 1 | 1017.2 |
| 20260506060533 | 54 | 90 | 0.0 | 0.0 | 0.00 | 0.00 | 0.00 | 1 | 1017.2 |
| 20260506051041 | 55 | 224 | 0.0 | 1.0 | 0.00 | 0.00 | 0.00 | 1 | 1017.2 |
| 20260506050538 | 55 | 215 | 0.0 | 1.0 | 0.00 | 0.00 | 0.00 | 1 | 1017.2 |
| 20260506045033 | 55 | 235 | 0.0 | 1.0 | 0.00 | 0.00 | 0.00 | 1 | 1017.1 |
| 20260506044520 | 55 | 228 | 0.0 | 0.0 | 0.00 | 0.00 | 0.00 | 1 | 1017.1 |
| 20260506044012 | 55 | 228 | 0.0 | 1.0 | 0.00 | 0.00 | 0.00 | 1 | 1017.1 |
| 20260506043511 | 55 | 228 | 0.0 | 1.0 | 0.00 | 0.00 | 0.00 | 1 | 1017.1 |
| 20260506043017 | 55 | 227 | 0.0 | 1.0 | 0.00 | 0.00 | 0.00 | 1 | 1017.0 |
| 20260506042508 | 55 | 235 | 0.0 | 0.0 | 0.00 | 0.00 | 0.00 | 1 | 1017.0 |
| 20260506042007 | 55 | 235 | 0.0 | 0.0 | 0.00 | 0.00 | 0.00 | 1 | 1016.9 |
| 20260506041607 | 55 | 235 | 0.0 | 0.0 | 0.00 | 0.00 | 0.00 | 1 | 1016.9 |
| 20260506041047 | 56 | 229 | 0.0 | 1.0 | 0.00 | 0.00 | 0.00 | 1 | 1016.7 |
| 20260506040545 | 56 | 231 | 0.0 | 1.0 | 0.00 | 0.00 | 0.00 | 1 | 1016.6 |
| 20260506040046 | 56 | 229 | 0.0 | 1.0 | 0.00 | 0.00 | 0.00 | 1 | 1016.6 |
| 20260506035542 | 56 | 229 | 0.0 | 1.0 | 0.00 | 0.00 | 0.00 | 1 | 1016.5 |
| 20260506035041 | 56 | 236 | 0.0 | 1.0 | 0.00 | 0.00 | 0.00 | 1 | 1016.5 |
| 20260506034543 | 56 | 224 | 0.0 | 1.0 | 0.00 | 0.00 | 0.00 | 1 | 1016.5 |
| 20260506034020 | 56 | 239 | 0.0 | 1.0 | 0.00 | 0.00 | 0.00 | 1 | 1016.4 |
| 20260506033519 | 56 | 259 | 0.0 | 0.0 | 0.00 | 0.00 | 0.00 | 1 | 1016.2 |
| 20260506033019 | 56 | 259 | 0.0 | 1.0 | 0.00 | 0.00 | 0.00 | 1 | 1016.3 |
| 20260506032516 | 56 | 260 | 0.0 | 1.0 | 0.00 | 0.00 | 0.00 | 1 | 1016.3 |
| 20260506032014 | 57 | 229 | 0.0 | 1.0 | 0.00 | 0.00 | 0.00 | 1 | 1016.2 |
| 20260506031514 | 57 | 239 | 0.0 | 1.0 | 0.00 | 0.00 | 0.00 | 1 | 1016.3 |
| 20260506031056 | 57 | 230 | 0.0 | 1.0 | 0.00 | 0.00 | 0.00 | 1 | 1016.3 |
| 20260506030553 | 57 | 224 | 0.0 | 1.0 | 0.00 | 0.00 | 0.00 | 1 | 1016.4 |
| 20260506030056 | 57 | 237 | 0.0 | 1.0 | 0.00 | 0.00 | 0.00 | 1 | 1016.3 |
| 20260506025552 | 57 | 238 | 0.0 | 2.0 | 0.00 | 0.00 | 0.00 | 1 | 1016.3 |
| 20260506025051 | 57 | 238 | 0.0 | 2.0 | 0.00 | 0.00 | 0.00 | 1 | 1016.3 |
| 20260506024556 | 57 | 231 | 0.0 | 1.0 | 0.00 | 0.00 | 0.00 | 1 | 1016.2 |
| 20260506024031 | 57 | 231 | 0.0 | 1.0 | 0.00 | 0.00 | 0.00 | 1 | 1016.1 |
| 20260506023529 | 57 | 231 | 0.0 | 1.0 | 0.00 | 0.00 | 0.00 | 1 | 1016.2 |
| 20260506023028 | 58 | 229 | 0.0 | 1.0 | 0.00 | 0.00 | 0.00 | 1 | 1016.2 |
| 20260506022526 | 58 | 231 | 0.0 | 1.0 | 0.00 | 0.00 | 0.00 | 1 | 1016.1 |
| 20260506022025 | 57 | 283 | 0.0 | 1.0 | 0.00 | 0.00 | 0.00 | 1 | 1016.1 |
| 20260506021524 | 58 | 228 | 0.0 | 1.0 | 0.00 | 0.00 | 0.00 | 1 | 1016.1 |
| 20260506021005 | 58 | 250 | 0.0 | 1.0 | 0.00 | 0.00 | 0.00 | 1 | 1016.1 |
| 20260506020502 | 58 | 235 | 0.0 | 1.0 | 0.00 | 0.00 | 0.00 | 1 | 1016.2 |
| 20260506020005 | 58 | 226 | 0.0 | 1.0 | 0.00 | 0.00 | 0.00 | 1 | 1016.2 |
| 20260506015604 | 58 | 227 | 0.0 | 1.0 | 0.00 | 0.00 | 0.00 | 1 | 1016.2 |
| 20260506015059 | 58 | 239 | 0.0 | 1.0 | 0.00 | 0.00 | 0.00 | 1 | 1016.2 |
| 20260506014558 | 58 | 338 | 0.0 | 1.0 | 0.00 | 0.00 | 0.00 | 1 | 1016.1 |
| 20260506014046 | 59 | 248 | 0.0 | 3.0 | 0.00 | 0.00 | 0.00 | 1 | 1016.1 |
| 20260506013542 | 59 | 221 | 0.0 | 3.0 | 0.00 | 0.00 | 0.00 | 1 | 1016.1 |
| 20260506013052 | 59 | 240 | 0.0 | 2.0 | 0.00 | 0.00 | 0.00 | 1 | 1016.2 |
| 20260506012540 | 60 | 239 | 0.0 | 2.0 | 0.00 | 0.00 | 0.00 | 1 | 1016.2 |
| 20260506012042 | 59 | 290 | 0.0 | 1.0 | 0.00 | 0.00 | 0.00 | 1 | 1016.2 |
| 20260506011538 | 59 | 236 | 0.0 | 1.0 | 0.00 | 0.00 | 0.00 | 1 | 1016.2 |
| 20260506011035 | 59 | 277 | 0.0 | 1.0 | 0.00 | 0.00 | 0.00 | 1 | 1016.2 |
| 20260506010536 | 60 | 253 | 0.0 | 2.0 | 0.00 | 0.00 | 0.00 | 1 | 1016.2 |
| 20260506010034 | 59 | 290 | 0.0 | 1.0 | 0.00 | 0.00 | 0.00 | 1 | 1016.2 |
| 20260506005530 | 59 | 239 | 0.0 | 2.0 | 0.00 | 0.00 | 0.00 | 1 | 1016.1 |
| 20260506005029 | 59 | 235 | 0.0 | 2.0 | 0.00 | 0.00 | 0.00 | 1 | 1016.2 |
| 20260506004528 | 60 | 239 | 0.0 | 2.0 | 0.00 | 0.00 | 0.00 | 1 | 1016.2 |
| 20260506004026 | 60 | 241 | 0.0 | 1.0 | 0.00 | 0.00 | 0.00 | 1 | 1016.2 |
| 20260506003525 | 59 | 239 | 0.0 | 2.0 | 0.00 | 0.00 | 0.00 | 1 | 1016.2 |
| 20260506003024 | 60 | 257 | 0.0 | 4.0 | 0.00 | 0.00 | 0.00 | 1 | 1016.3 |
| 20260506002522 | 60 | 214 | 2.0 | 4.0 | 0.00 | 0.00 | 0.00 | 1 | 1016.2 |
| 20260506002021 | 61 | 224 | 2.0 | 5.0 | 0.00 | 0.00 | 0.00 | 1 | 1016.2 |
| 20260506001519 | 61 | 245 | 0.0 | 4.0 | 0.00 | 0.00 | 0.00 | 1 | 1016.2 |
| 20260506001018 | 61 | 232 | 1.0 | 4.0 | 0.00 | 0.00 | 0.00 | 1 | 1016.3 |
| 20260506000517 | 61 | 225 | 0.0 | 2.0 | 0.00 | 0.00 | 0.00 | 1 | 1016.3 |
| 20260506000015 | 61 | 222 | 0.0 | 2.0 | 0.00 | 0.00 | 0.00 | 1 | 1016.3 |
| 20260505235514 | 61 | 235 | 0.0 | 1.0 | 0.00 | 0.00 | 0.00 | 1 | 1016.2 |
| 20260505235012 | 61 | 253 | 0.0 | 2.0 | 0.00 | 0.00 | 0.00 | 1 | 1016.3 |
| 20260505234510 | 60 | 249 | 0.0 | 2.0 | 0.00 | 0.00 | 0.00 | 1 | 1016.4 |
| 20260505233549 | 61 | 279 | 0.0 | 2.0 | 0.00 | 0.00 | 0.00 | 1 | 1016.5 |
| 20260505233050 | 61 | 239 | 0.0 | 2.0 | 0.00 | 0.00 | 0.00 | 1 | 1016.4 |
| 20260505232548 | 61 | 232 | 1.0 | 3.0 | 0.00 | 0.00 | 0.00 | 1 | 1016.6 |
| 20260505232046 | 60 | 298 | 0.0 | 3.0 | 0.00 | 0.00 | 0.00 | 1 | 1016.6 |
| 20260505231601 | 61 | 249 | 0.0 | 3.0 | 0.00 | 0.00 | 0.00 | 1 | 1016.6 |
| 20260505231025 | 61 | 236 | 0.0 | 2.0 | 0.00 | 0.00 | 0.00 | 1 | 1016.6 |
| 20260505230524 | 61 | 241 | 0.0 | 3.0 | 0.00 | 0.00 | 0.00 | 1 | 1016.6 |
| 20260505230022 | 61 | 239 | 0.0 | 3.0 | 0.00 | 0.00 | 0.00 | 1 | 1016.7 |
| 20260505225522 | 61 | 225 | 1.0 | 3.0 | 0.00 | 0.00 | 0.00 | 1 | 1016.7 |
| 20260505225020 | 62 | 236 | 1.0 | 3.0 | 0.00 | 0.00 | 0.00 | 3 | 1016.7 |
| 20260505224519 | 62 | 233 | 1.0 | 3.0 | 0.00 | 0.00 | 0.00 | 3 | 1016.7 |
| 20260505224118 | 62 | 200 | 0.0 | 3.0 | 0.00 | 0.00 | 0.00 | 1 | 1016.7 |
| 20260505223558 | 62 | 221 | 0.0 | 3.0 | 0.00 | 0.00 | 0.00 | 2 | 1016.7 |
| 20260505223105 | 62 | 224 | 0.0 | 4.0 | 0.00 | 0.00 | 0.00 | 1 | 1016.7 |
| 20260505222600 | 62 | 236 | 1.0 | 4.0 | 0.00 | 0.00 | 0.00 | 1 | 1016.7 |
| 20260505222056 | 62 | 235 | 0.0 | 3.0 | 0.00 | 0.00 | 0.00 | 1 | 1016.7 |
| 20260505221558 | 62 | 233 | 1.0 | 3.0 | 0.00 | 0.00 | 0.00 | 1 | 1016.8 |
| 20260505221054 | 62 | 240 | 0.0 | 3.0 | 0.00 | 0.00 | 0.00 | 1 | 1016.9 |
| 20260505220532 | 62 | 257 | 0.0 | 4.0 | 0.00 | 0.00 | 0.00 | 1 | 1016.9 |
| 20260505220034 | 62 | 236 | 0.0 | 4.0 | 0.00 | 0.00 | 0.00 | 1 | 1016.9 |
| 20260505215530 | 62 | 225 | 1.0 | 5.0 | 0.00 | 0.00 | 0.00 | 1 | 1016.8 |
| 20260505215028 | 62 | 232 | 1.0 | 3.0 | 0.00 | 0.00 | 0.00 | 3 | 1016.8 |
| 20260505214534 | 62 | 245 | 0.0 | 4.0 | 0.00 | 0.00 | 0.00 | 1 | 1016.9 |
| 20260505214026 | 62 | 224 | 1.0 | 4.0 | 0.00 | 0.00 | 0.00 | 9 | 1016.9 |
| 20260505213506 | 63 | 249 | 0.0 | 3.0 | 0.00 | 0.00 | 0.00 | 1 | 1016.9 |
| 20260505213008 | 62 | 232 | 0.0 | 5.0 | 0.00 | 0.00 | 0.00 | 1 | 1016.9 |
| 20260505212503 | 62 | 219 | 2.0 | 5.0 | 0.00 | 0.00 | 0.00 | 8 | 1017.0 |
| 20260505212003 | 63 | 242 | 0.0 | 5.0 | 0.00 | 0.00 | 0.00 | 1 | 1017.0 |
| 20260505211502 | 63 | 265 | 1.0 | 0.0 | 0.00 | 0.00 | 0.00 | 1 | 1016.8 |
| 20260505211100 | 63 | 226 | 0.0 | 2.0 | 0.00 | 0.00 | 0.00 | 1 | 1016.8 |
| 20260505210541 | 63 | 238 | 0.0 | 5.0 | 0.00 | 0.00 | 0.00 | 1 | 1016.7 |
| 20260505210042 | 63 | 239 | 2.0 | 5.0 | 0.00 | 0.00 | 0.00 | 4 | 1016.8 |
| 20260505205538 | 63 | 239 | 1.0 | 4.0 | 0.00 | 0.00 | 0.00 | 1 | 1016.8 |
| 20260505205036 | 62 | 274 | 0.0 | 3.0 | 0.00 | 0.00 | 0.00 | 1 | 1016.8 |
| 20260505204536 | 62 | 224 | 0.0 | 3.0 | 0.00 | 0.00 | 0.00 | 1 | 1016.9 |
| 20260505204033 | 62 | 224 | 1.0 | 3.0 | 0.00 | 0.00 | 0.00 | 1 | 1017.0 |
| 20260505203518 | 62 | 255 | 0.0 | 5.0 | 0.00 | 0.00 | 0.00 | 1 | 1017.1 |
| 20260505203013 | 62 | 221 | 1.0 | 6.0 | 0.00 | 0.00 | 0.00 | 1 | 1017.0 |
| 20260505202511 | 62 | 259 | 0.0 | 3.0 | 0.00 | 0.00 | 0.00 | 1 | 1017.0 |
| 20260505202009 | 62 | 226 | 1.0 | 5.0 | 0.00 | 0.00 | 0.00 | 1 | 1016.9 |
| 20260505201511 | 62 | 235 | 1.0 | 5.0 | 0.00 | 0.00 | 0.00 | 5 | 1016.9 |
| 20260505201007 | 63 | 229 | 1.0 | 5.0 | 0.00 | 0.00 | 0.00 | 2 | 1016.9 |
| 20260505200548 | 62 | 238 | 0.0 | 6.0 | 0.00 | 0.00 | 0.00 | 4 | 1017.0 |
| 20260505200056 | 62 | 259 | 1.0 | 6.0 | 0.00 | 0.00 | 0.00 | 12 | 1016.9 |
| 20260505195544 | 63 | 238 | 0.0 | 3.0 | 0.00 | 0.00 | 0.00 | 12 | 1016.9 |
| 20260505195044 | 64 | 290 | 0.0 | 2.0 | 0.00 | 0.00 | 0.00 | 8 | 1016.8 |
| 20260505194544 | 63 | 249 | 0.0 | 4.0 | 0.00 | 0.00 | 0.00 | 5 | 1016.8 |
| 20260505194041 | 63 | 219 | 0.0 | 3.0 | 0.00 | 0.00 | 0.00 | 1 | 1016.8 |
| 20260505193521 | 63 | 345 | 0.0 | 3.0 | 0.00 | 0.00 | 0.00 | 1 | 1016.8 |
| 20260505193021 | 63 | 239 | 0.0 | 4.0 | 0.00 | 0.00 | 0.00 | 9 | 1016.8 |
| 20260505192520 | 63 | 240 | 0.0 | 4.0 | 0.00 | 0.00 | 0.00 | 8 | 1016.7 |
| 20260505192019 | 63 | 106 | 0.0 | 3.0 | 0.00 | 0.00 | 0.00 | 1 | 1016.8 |
| 20260505191518 | 62 | 267 | 0.0 | 3.0 | 0.00 | 0.00 | 0.00 | 1 | 1016.8 |
| 20260505191016 | 62 | 263 | 0.0 | 5.0 | 0.00 | 0.00 | 0.00 | 1 | 1016.7 |
| 20260505190555 | 63 | 229 | 0.0 | 5.0 | 0.00 | 0.00 | 0.00 | 1 | 1016.7 |
| 20260505190054 | 63 | 232 | 0.0 | 4.0 | 0.00 | 0.00 | 0.00 | 1 | 1016.7 |
| 20260505185551 | 62 | 201 | 0.0 | 4.0 | 0.00 | 0.00 | 0.00 | 4 | 1016.7 |
| 20260505185050 | 62 | 159 | 0.0 | 5.0 | 0.00 | 0.00 | 0.00 | 1 | 1016.7 |
| 20260505184549 | 62 | 207 | 1.0 | 5.0 | 0.00 | 0.00 | 0.00 | 1 | 1016.7 |
| 20260505184048 | 61 | 224 | 1.0 | 4.0 | 0.00 | 0.00 | 0.00 | 1 | 1016.7 |
| 20260505183528 | 61 | 236 | 0.0 | 4.0 | 0.00 | 0.00 | 0.00 | 1 | 1016.7 |
| 20260505183031 | 61 | 236 | 1.0 | 3.0 | 0.00 | 0.00 | 0.00 | 1 | 1016.7 |
| 20260505182525 | 61 | 278 | 0.0 | 3.0 | 0.00 | 0.00 | 0.00 | 1 | 1016.6 |
| 20260505182025 | 61 | 298 | 0.0 | 3.0 | 0.00 | 0.00 | 0.00 | 1 | 1016.5 |
| 20260505181525 | 61 | 235 | 0.0 | 3.0 | 0.00 | 0.00 | 0.00 | 1 | 1016.5 |
| 20260505181023 | 61 | 229 | 1.0 | 3.0 | 0.00 | 0.00 | 0.00 | 1 | 1016.5 |
| 20260505180505 | 61 | 240 | 0.0 | 3.0 | 0.00 | 0.00 | 0.00 | 1 | 1016.5 |
| 20260505180003 | 61 | 246 | 0.0 | 1.0 | 0.00 | 0.00 | 0.00 | 1 | 1016.5 |
| 20260505175504 | 61 | 260 | 0.0 | 2.0 | 0.00 | 0.00 | 0.00 | 1 | 1016.4 |
| 20260505175003 | 60 | 226 | 0.0 | 4.0 | 0.00 | 0.00 | 0.00 | 1 | 1016.4 |
| 20260505174604 | 61 | 222 | 1.0 | 4.0 | 0.00 | 0.00 | 0.00 | 1 | 1016.4 |
| 20260505174059 | 60 | 232 | 0.0 | 4.0 | 0.00 | 0.00 | 0.00 | 1 | 1016.3 |
| 20260505173539 | 60 | 219 | 0.0 | 4.0 | 0.00 | 0.00 | 0.00 | 1 | 1016.3 |
| 20260505173037 | 59 | 242 | 0.0 | 3.0 | 0.00 | 0.00 | 0.00 | 1 | 1016.3 |
| 20260505172540 | 59 | 223 | 0.0 | 3.0 | 0.00 | 0.00 | 0.00 | 1 | 1016.3 |
| 20260505172034 | 59 | 238 | 0.0 | 3.0 | 0.00 | 0.00 | 0.00 | 1 | 1016.2 |
| 20260505171533 | 58 | 236 | 1.0 | 3.0 | 0.00 | 0.00 | 0.00 | 1 | 1016.1 |
| 20260505171032 | 58 | 229 | 1.0 | 2.0 | 0.00 | 0.00 | 0.00 | 1 | 1016.1 |
| 20260505170513 | 58 | 277 | 0.0 | 0.0 | 0.00 | 0.00 | 0.00 | 1 | 1016.0 |
| 20260505170013 | 58 | 228 | 0.0 | 0.0 | 0.00 | 0.00 | 0.00 | 1 | 1016.0 |
| 20260505165510 | 58 | 229 | 0.0 | 0.0 | 0.00 | 0.00 | 0.00 | 1 | 1016.0 |
| 20260505165009 | 58 | 240 | 0.0 | 0.0 | 0.00 | 0.00 | 0.00 | 1 | 1015.9 |
| 20260505164508 | 58 | 236 | 0.0 | 0.0 | 0.00 | 0.00 | 0.00 | 1 | 1015.8 |
| 20260505164006 | 57 | 239 | 0.0 | 1.0 | 0.00 | 0.00 | 0.00 | 1 | 1015.8 |
| 20260505163606 | 57 | 228 | 0.0 | 1.0 | 0.00 | 0.00 | 0.00 | 1 | 1015.8 |
| 20260505163046 | 57 | 304 | 0.0 | 1.0 | 0.00 | 0.00 | 0.00 | 1 | 1015.8 |
| 20260505162544 | 56 | 278 | 0.0 | 1.0 | 0.00 | 0.00 | 0.00 | 1 | 1015.8 |
| 20260505162043 | 56 | 280 | 0.0 | 1.0 | 0.00 | 0.00 | 0.00 | 1 | 1015.9 |
| 20260505161542 | 56 | 277 | 0.0 | 1.0 | 0.00 | 0.00 | 0.00 | 1 | 1015.9 |
| 20260505161041 | 56 | 224 | 0.0 | 1.0 | 0.00 | 0.00 | 0.00 | 1 | 1015.9 |
| 20260505160540 | 56 | 190 | 0.0 | 1.0 | 0.00 | 0.00 | 0.00 | 1 | 1015.8 |
| 20260505153102 | 55 | 228 | 0.0 | 0.0 | 0.00 | 0.00 | 0.00 | 1 | 1015.5 |
| 20260505152553 | 55 | 228 | 0.0 | 0.0 | 0.00 | 0.00 | 0.00 | 1 | 1015.4 |
| 20260505152051 | 55 | 228 | 0.0 | 1.0 | 0.00 | 0.00 | 0.00 | 1 | 1015.3 |
| 20260505151556 | 55 | 234 | 0.0 | 1.0 | 0.00 | 0.00 | 0.00 | 1 | 1015.3 |
| 20260505151048 | 55 | 217 | 0.0 | 1.0 | 0.00 | 0.00 | 0.00 | 1 | 1015.3 |
| 20260505150547 | 55 | 228 | 0.0 | 1.0 | 0.00 | 0.00 | 0.00 | 1 | 1015.2 |
| 20260505140556 | 0 | 0.0 | 0.0 | 0.00 | 0.00 | 0.00 | 1014.7 | ||
| 20260505124541 | 0 | 0.0 | 0.0 | 0.00 | 0.00 | 0.00 | 1014.1 | ||
| 20260505124039 | 0 | 0.0 | 0.0 | 0.00 | 0.00 | 0.00 | 1014.1 | ||
| 20260505123537 | 0 | 0.0 | 0.0 | 0.00 | 0.00 | 0.00 | 1014.2 | ||
| 20260505123027 | 0 | 0.0 | 0.0 | 0.00 | 0.00 | 0.00 | 1014.2 | ||
| 20260505122520 | 0 | 0.0 | 0.0 | 0.00 | 0.00 | 0.00 | 1014.1 | ||
| 20260505122016 | 0 | 0.0 | 0.0 | 0.00 | 0.00 | 0.00 | 1014.1 | ||
| 20260505121519 | 0 | 0.0 | 0.0 | 0.00 | 0.00 | 0.00 | 1014.1 | ||
| 20260505121013 | 0 | 0.0 | 0.0 | 0.00 | 0.00 | 0.00 | 1014.0 | ||
| 20260505120512 | 0 | 0.0 | 0.0 | 0.00 | 0.00 | 0.00 | 1014.0 | ||
| 20260505120055 | 0 | 0.0 | 0.0 | 0.00 | 0.00 | 0.00 | 1014.0 | ||
| 20260505115551 | 0 | 0.0 | 0.0 | 0.00 | 0.00 | 0.00 | 1014.0 | ||
| 20260505115050 | 0 | 0.0 | 0.0 | 0.00 | 0.00 | 0.00 | 1014.0 | ||
| 20260505114557 | 0 | 0.0 | 0.0 | 0.00 | 0.00 | 0.00 | 1013.9 | ||
| 20260505114048 | 0 | 0.0 | 0.0 | 0.00 | 0.00 | 0.00 | 1013.9 | ||
| 20260505113547 | 0 | 0.0 | 0.0 | 0.00 | 0.00 | 0.00 | 1014.0 | ||
| 20260505113027 | 0 | 0.0 | 0.0 | 0.00 | 0.00 | 0.00 | 1014.0 | ||
| 20260505112525 | 0 | 0.0 | 0.0 | 0.00 | 0.00 | 0.00 | 1014.0 | ||
| 20260505112024 | 0 | 0.0 | 0.0 | 0.00 | 0.00 | 0.00 | 1013.9 | ||
| 20260505111523 | 0 | 0.0 | 0.0 | 0.00 | 0.00 | 0.00 | 1013.9 | ||
| 20260505111022 | 0 | 0.0 | 0.0 | 0.00 | 0.00 | 0.00 | 1013.8 | ||
| 20260505110520 | 0 | 0.0 | 0.0 | 0.00 | 0.00 | 0.00 | 1013.9 | ||
| 20260505102031 | 0 | 0.0 | 0.0 | 0.00 | 0.00 | 0.00 | 1013.6 | ||
| 20260505101542 | 0 | 0.0 | 0.0 | 0.00 | 0.00 | 0.00 | 1013.6 | ||
| 20260505101029 | 0 | 0.0 | 0.0 | 0.00 | 0.00 | 0.00 | 1013.5 | ||
| 20260505100528 | 0 | 0.0 | 0.0 | 0.00 | 0.00 | 0.00 | 1013.5 | ||
| 20260505100027 | 0 | 0.0 | 0.0 | 0.00 | 0.00 | 0.00 | 1013.6 | ||
| 20260505095511 | 0 | 0.0 | 0.0 | 0.00 | 0.00 | 0.00 | 1013.6 | ||
| 20260505095006 | 0 | 0.0 | 0.0 | 0.00 | 0.00 | 0.00 | 1013.5 | ||
| 20260505094505 | 0 | 0.0 | 0.0 | 0.00 | 0.00 | 0.00 | 1013.6 | ||
| 20260505094003 | 0 | 0.0 | 0.0 | 0.00 | 0.00 | 0.00 | 1013.5 | ||
| 20260505093503 | 0 | 0.0 | 0.0 | 0.00 | 0.00 | 0.00 | 1013.5 | ||
| 20260505093002 | 0 | 0.0 | 0.0 | 0.00 | 0.00 | 0.00 | 1013.5 | ||
| 20260505092542 | 0 | 0.0 | 0.0 | 0.00 | 0.00 | 0.00 | 1013.4 | ||
| 20260505092041 | 0 | 0.0 | 0.0 | 0.00 | 0.00 | 0.00 | 1013.4 | ||
| 20260505091547 | 0 | 0.0 | 0.0 | 0.00 | 0.00 | 0.00 | 1013.4 | ||
| 20260505091039 | 0 | 0.0 | 0.0 | 0.00 | 0.00 | 0.00 | 1013.4 | ||
| 20260505090536 | 0 | 0.0 | 0.0 | 0.00 | 0.00 | 0.00 | 1013.4 | ||
| 20260505090035 | 0 | 0.0 | 0.0 | 0.00 | 0.00 | 0.00 | 1013.4 | ||
| 20260505085519 | 0 | 0.0 | 0.0 | 0.00 | 0.00 | 0.00 | 1013.3 | ||
| 20260505085015 | 0 | 0.0 | 0.0 | 0.00 | 0.00 | 0.00 | 1013.3 | ||
| 20260505084513 | 0 | 0.0 | 0.0 | 0.00 | 0.00 | 0.00 | 1013.3 | ||
| 20260505084012 | 0 | 0.0 | 0.0 | 0.00 | 0.00 | 0.00 | 1013.3 | ||
| 20260505083512 | 0 | 0.0 | 0.0 | 0.00 | 0.00 | 0.00 | 1013.3 | ||
| 20260505083016 | 0 | 0.0 | 0.0 | 0.00 | 0.00 | 0.00 | 1013.2 | ||
| 20260505082551 | 0 | 0.0 | 0.0 | 0.00 | 0.00 | 0.00 | 1013.3 | ||
| 20260505082051 | 0 | 0.0 | 0.0 | 0.00 | 0.00 | 0.00 | 1013.3 | ||
| 20260505081549 | 0 | 0.0 | 0.0 | 0.00 | 0.00 | 0.00 | 1013.3 | ||
| 20260505081048 | 0 | 0.0 | 0.0 | 0.00 | 0.00 | 0.00 | 1013.3 | ||
| 20260505080545 | 0 | 0.0 | 0.0 | 0.00 | 0.00 | 0.00 | 1013.3 | ||
| 20260505080045 | 0 | 0.0 | 0.0 | 0.00 | 0.00 | 0.00 | 1013.3 | ||
| 20260505075524 | 0 | 0.0 | 0.0 | 0.00 | 0.00 | 0.00 | 1013.3 | ||
| 20260505075023 | 0 | 0.0 | 0.0 | 0.00 | 0.00 | 0.00 | 1013.4 | ||
| 20260505074524 | 0 | 0.0 | 0.0 | 0.00 | 0.00 | 0.00 | 1013.4 | ||
| 20260505074020 | 0 | 0.0 | 0.0 | 0.00 | 0.00 | 0.00 | 1013.3 | ||
| 20260505073523 | 0 | 0.0 | 0.0 | 0.00 | 0.00 | 0.00 | 1013.3 | ||
| 20260505073018 | 0 | 0.0 | 0.0 | 0.00 | 0.00 | 0.00 | 1013.3 | ||
| 20260505072503 | 0 | 0.0 | 0.0 | 0.00 | 0.00 | 0.00 | 1013.1 | ||
| 20260505072103 | 0 | 0.0 | 0.0 | 0.00 | 0.00 | 0.00 | 1013.1 | ||
| 20260505071604 | 0 | 0.0 | 0.0 | 0.00 | 0.00 | 0.00 | 1013.1 |